This demonstration page uses our WeatherBlox Daily Observations layout. Learn more.

Left ArrowRight Arrow

39.51506, -84.39828

Hourly Observations for April 23, 2016

Temp ( °F °C ) Dew Point ( °F °C ) Humidity (%) Winds ( mph kmh ) Pressure ( in mb ) Visibility ( mi km ) Precip ( " mm )
12:15 am 00:15 Mostly Cloudy 57 14 48 9 72 72 undefined N/A 30.03 1017 10 16 N/A
12:35 am 00:35 Cloudy 57 13.8 48 9 73 73 undefined N/A 30.03 1017 7 11 N/A
12:55 am 00:55 Mostly Cloudy 57 13.8 47 8.5 71 71 undefined N/A 30.03 1017 7 11 N/A
1:15 am 01:15 Mostly Cloudy 57 13.8 47 8.3 70 70 undefined N/A 30.03 1017 10 16 N/A
1:35 am 01:35 Mostly Cloudy 57 13.8 47 8.4 70 70 undefined N/A 30.06 1018 7 11 N/A
1:55 am 01:55 Cloudy 57 13.8 47 8.5 71 71 undefined N/A 30.06 1018 7 11 N/A
2:15 am 02:15 Mostly Cloudy 57 13.8 47 8.3 70 70 undefined N/A 30.06 1018 7 11 N/A
2:35 am 02:35 Mostly Cloudy 55 12.9 46 7.5 70 70 undefined N/A 30.06 1018 7 11 N/A
2:55 am 02:55 Mostly Cloudy 55 12.5 45 7 69 69 undefined N/A 30.06 1018 7 11 N/A
3:10 am 03:10 Cloudy 55 12.5 45 7 69 69 undefined N/A 30.06 1018 10 16 N/A
3:35 am 03:35 Cloudy 55 12.5 45 7.2 70 70 undefined N/A 30.06 1018 10 16 N/A
3:55 am 03:55 Cloudy 55 12.5 46 7.5 72 72 undefined N/A 30.06 1018 10 16 N/A
4:15 am 04:15 Cloudy 55 12.5 46 7.5 72 72 undefined N/A 30.06 1018 7 11 N/A
4:35 am 04:35 Cloudy 55 12.5 46 7.5 72 72 undefined N/A 30.06 1018 7 11 N/A
4:55 am 04:55 Cloudy 52 11 43 6 72 72 undefined N/A 30.09 1019 10 16 N/A
5:15 am 05:15 Cloudy 52 11 42 5.8 71 71 undefined N/A 30.09 1019 10 16 N/A
5:35 am 05:35 Cloudy 52 11 42 5.7 70 70 undefined N/A 30.09 1019 10 16 N/A
5:55 am 05:55 Cloudy 51 10.3 41 4.8 69 69 undefined N/A 30.09 1019 10 16 N/A
6:15 am 06:15 Cloudy 49 9.6 39 4 68 68 undefined N/A 30.09 1019 10 16 N/A
6:35 am 06:35 Cloudy 49 9.6 40 4.5 71 71 undefined N/A 30.12 1020 10 16 N/A
6:55 am 06:55 Cloudy 49 9.6 40 4.6 71 71 undefined N/A 30.12 1020 10 16 N/A
7:15 am 07:15 Cloudy 49 9.6 40 4.3 70 70 undefined N/A 30.12 1020 10 16 N/A
7:35 am 07:35 Cloudy 49 9.6 39 4 68 68 undefined N/A 30.12 1020 10 16 N/A
7:55 am 07:55 Cloudy 49 9.6 39 3.7 67 67 undefined N/A 30.15 1021 10 16 N/A
8:15 am 08:15 Partly Cloudy 49 9.6 37 2.6 62 62 undefined N/A 30.15 1021 10 16 N/A
8:35 am 08:35 Sunny 50 9.8 35 1.8 58 58 undefined N/A 30.15 1021 10 16 N/A
8:55 am 08:55 Sunny 50 10.2 36 2.1 57 57 undefined N/A 30.15 1021 10 16 N/A
9:15 am 09:15 Sunny 52 11.1 37 2.5 56 56 undefined N/A 30.15 1021 10 16 N/A
9:35 am 09:35 Sunny 55 12.5 38 3.4 54 54 undefined N/A 30.15 1021 10 16 N/A
9:55 am 09:55 Sunny 55 12.5 38 3.2 53 53 undefined N/A 30.18 1022 10 16 N/A
10:15 am 10:15 Sunny 55 12.5 37 2.9 52 52 undefined N/A 30.15 1021 10 16 N/A
10:35 am 10:35 Sunny 55 12.5 36 2.3 50 50 undefined N/A 30.18 1022 10 16 N/A
10:55 am 10:55 Sunny 56 13.5 37 3 49 49 undefined N/A 30.18 1022 10 16 N/A
11:15 am 11:15 Sunny 57 13.8 38 3.4 50 50 undefined N/A 30.18 1022 10 16 N/A
11:35 am 11:35 Sunny 57 13.8 36 2.3 46 46 undefined N/A 30.18 1022 10 16 N/A
11:55 am 11:55 Sunny 57 13.8 35 1.7 44 44 undefined N/A 30.15 1021 10 16 N/A
12:15 pm 12:15 Sunny 58 14.5 34 1.3 41 41 undefined N/A 30.18 1022 10 16 N/A
12:35 pm 12:35 Sunny 60 15.3 36 2.1 41 41 undefined N/A 30.18 1022 10 16 N/A
12:55 pm 12:55 Sunny 60 15.3 36 2.1 41 41 undefined N/A 30.15 1021 10 16 N/A
1:15 pm 13:15 Sunny 60 15.8 35 1.7 39 39 undefined N/A 30.15 1021 10 16 N/A
1:35 pm 13:35 Sunny 61 16 34 0.9 36 36 undefined N/A 30.15 1021 10 16 N/A
1:55 pm 13:55 Sunny 62 16.6 34 1.2 36 36 undefined N/A 30.15 1021 10 16 N/A
2:15 pm 14:15 Sunny 62 16.6 33 0.5 34 34 undefined N/A 30.15 1021 10 16 N/A
2:35 pm 14:35 Sunny 62 16.8 33 0.3 33 33 NNE 9 15 30.12 1020 10 16 N/A
2:55 pm 14:55 Sunny 62 16.8 33 0.3 33 33 undefined N/A 30.12 1020 10 16 N/A
3:15 pm 15:15 Sunny 63 17 31 -0.7 30 30 ENE 9 15 30.12 1020 10 16 N/A
3:35 pm 15:35 Sunny 64 17.8 30 -0.9 28 28 undefined N/A 30.12 1020 10 16 N/A
3:55 pm 15:55 Sunny 64 17.5 29 -1.9 27 27 undefined N/A 30.09 1019 10 16 N/A
4:15 pm 16:15 Sunny 64 17.6 30 -1.3 28 28 ENE 9 15 30.09 1019 10 16 N/A
4:35 pm 16:35 Sunny 63 17.3 29 -1.4 28 28 undefined N/A 30.09 1019 10 16 N/A
4:55 pm 16:55 Sunny 64 17.8 25 -3.8 23 23 E 9 15 30.09 1019 10 16 N/A
5:15 pm 17:15 Sunny 64 17.8 29 -1.9 26 26 undefined N/A 30.09 1019 10 16 N/A
5:35 pm 17:35 Sunny 64 18 28 -2.3 25 25 undefined N/A 30.09 1019 10 16 N/A
5:55 pm 17:55 Sunny 64 18 25 -3.7 23 23 NE 8 13 30.09 1019 10 16 N/A
6:15 pm 18:15 Sunny 64 18 24 -4.3 22 22 undefined N/A 30.09 1019 10 16 N/A
6:35 pm 18:35 Sunny 63 17.3 24 -4.5 22 22 undefined N/A 30.09 1019 10 16 N/A
6:55 pm 18:55 Sunny 63 17 27 -3 25 25 undefined N/A 30.09 1019 10 16 N/A
7:15 pm 19:15 Sunny 62 16.7 27 -3 26 26 undefined N/A 30.06 1018 10 16 N/A
7:35 pm 19:35 Sunny 62 16.6 29 -1.5 29 29 undefined N/A 30.06 1018 10 16 N/A
7:55 pm 19:55 Sunny 61 15.9 29 -1.4 31 31 undefined N/A 30.09 1019 10 16 N/A
8:15 pm 20:15 Sunny 60 15.3 30 -1.3 32 32 undefined N/A 30.09 1019 10 16 N/A
8:35 pm 20:35 Clear 60 15.3 32 0.1 36 36 undefined N/A 30.09 1019 10 16 N/A
8:55 pm 20:55 Clear 57 13.8 37 2.7 47 47 undefined N/A 30.12 1020 10 16 N/A
9:15 pm 21:15 Clear 55 12.5 41 5.1 61 61 undefined N/A 30.12 1020 10 16 N/A
9:35 pm 21:35 Clear 52 11 41 5.1 67 67 undefined N/A 30.12 1020 10 16 N/A
9:55 pm 21:55 Clear 49 9.6 40 4.4 70 70 undefined N/A 30.12 1020 10 16 N/A
10:15 pm 22:15 Clear 49 9.6 41 4.9 73 73 undefined N/A 30.12 1020 10 16 N/A
10:35 pm 22:35 Clear 49 9.6 41 5 73 73 undefined N/A 30.12 1020 10 16 N/A
10:55 pm 22:55 Clear 49 9.6 40 4.3 70 70 undefined N/A 30.12 1020 10 16 N/A
11:15 pm 23:15 Clear 49 9.6 41 5 73 73 undefined N/A 30.09 1019 10 16 N/A
11:35 pm 23:35 Clear 47 8.2 40 4.3 77 77 undefined N/A 30.12 1020 10 16 N/A
11:55 pm 23:55 Clear 47 8.6 41 4.8 77 77 undefined N/A 30.12 1020 10 16 N/A

Powered by AerisWeather